Showing default

TECHNOSAT, 42829

Orbit data source: Space-Track

TECHNOSAT, 42829 is a payload satellite owned by TUB (DE) in SSO that was launched on Fri, 14 Jul 2017 UTC via a SOYUZ-2-1A launch vehicle from the Tyuratam Missile And Space Complex (TTMTR). Payload-class satellites include a variety of spacecraft equipped with specific instruments for various scientific and technological missions. These include communications satellites like Starlink; space stations such as the ISS; scientific satellites like the Hubble; Earth observation satellites from companies like Planet Labs, Umbra, and HawkEye 360; GPS; miniature CubeSats for education and research; and military/defense satellites.

Loading next visibility...
Identifier
42829, 2017-042E
Orbit
SSO
Last TLE update
9 hours ago
Origin
Manufacturer
TUB
Mission
Operational Amateur Technology
Bus & Motor
TUBIX20, Unknown motor
Mass
18 kg wet, 18 kg dry
Launch date (UTC)
2017-07-14 (8 years ago)
Launch vehicle
SOYUZ-2-1A
Launch site
Tyuratam Missile And Space Complex (TTMTR)
Object type
Payload
Rocket body
Debris
Shape & HBR
Oct Cyl, 0.45 m
Radar Cross Section
0.175 m², Medium (>0.1 m² and < 1m²)

Expand to show TLE details & history

TLE from 9 hours ago
0 TECHNOSAT
1 42829U 17042E   25183.89787742  .00002317  00000-0  18163-3 0  9995
2 42829  97.3854 351.4908 0016117 194.7055 165.3704 15.01799570434225
Epoch: 2025-07-02T21:32Z
TLE epoch observation values (Epoch: 2025-07-02T21:32:56.609Z)
Latitude
0.00004°
Longitude
107.08254°
Altitude
575.239 km
Speed
7.567 km/s
True Right ascension
23h 25m 57s
True Declination
0° 00' 00"
Sunlit
Object was in daylight at epoch
Visualization orbit readout
Latitude
-51.8487°
Longitude
116.89903°
Altitude
586.123 km
Speed
7.563 km/s
Apparent Right ascension
03h 39m 51s
Apparent Declination
-57° 44' 47"
Sunlit
Object is in full shadow
Visualization observer readout
Local Sidereal Time
18:40:23
Azimuth
137.102° SSE
Elevation
-56.244°
Doppler factor
1
Orbital elements
Apogee altitude
569.516 km
Perigee altitude
547.157 km
Semi-major axis
6,936.473 km
Eccentricity
0.00161
Inclination
97.3854°
RAAN
351.4908°
Arg. of periapsis
194.7055°
True anomaly
Unknown
Mean anomaly
165.3704°
Eccentric anomaly
Unknown
Mean motion
3.75695 °/min
Orbital period
95.82 mins
BSTAR
0.00018163
Loading maneuver chart data...
Loading SW <> Apogee altitude chart data...

TECHNOSAT Visibility forecast

Observer location: undefined°, undefined°

Span
Click to sort rows by Start time (UTC) header in descending order
Start Az.
Max El. time (UTC)
Max El. Az.
Max El.
End time (UTC)
End Az.
6 mins2025-07-03 10:28:38.154Z126.084° SE2025-07-03 10:31:38.154Z76.834° E23.632°2025-07-03 10:34:38.154Z19.08° NNE
5 mins2025-07-03 12:04:38.154Z224.11° SW2025-07-03 12:06:38.154Z261.299° W20.845°2025-07-03 12:09:38.154Z314.244° NW
5 mins2025-07-03 23:43:38.154Z37.991° NE2025-07-03 23:45:38.154Z105.901° ESE36.624°2025-07-03 23:48:38.154Z171.326° S
|